Terminal Aerodrome Forecast
Issued by NWS

Home | Current Version | Previous Version | Text Only | Print | Product List | Glossary On
Versions: 1 2 3 4 5 6 7 8 9 10 11 12 13 14 15 16 17 18 19 20 21 22
000
FTUS41 KOKX 311400 AAA
TAFSWF
TAF AMD
KSWF 311431Z 3115/0118 06005KT P6SM BKN040
     FM312100 09006KT P6SM BKN035
     FM010200 07005KT P6SM -RA SCT025 BKN035
     FM010600 06005KT 5SM -RA BR BKN025
     FM011500 04010KT P6SM BKN025
      AMD NOT SKED=

USA.gov is the U.S. government's official web portal to all federal, state and local government web resources and services.